Humidity-temperature Sensor

Selected Measurement Type: Relative Humidity

 
Relative Humidity [%]     6 entries per hour
Showing data from 3/25/2016 (00:00:00 Z) to 3/24/2016 (00:01:00 Z)
Previous Next [ Day | 3-Days | 7-Days ]
First Last
Prev [ Day | 3-Days | 7-Days ] Next
First Last

Start Time:     :
End Time:     :     
Time (in GMT) :00 :50 :40 :30 :20 :10
Previous Next [ Day | 3-Days | 7-Days ]
First Last
Prev [ Day | 3-Days | 7-Days ] Next
First Last


123 => good data
MM => data is determined as missing
-- => data not received/configured
Back to Top Back to Top
3/25/2016 00:00 to 23:10 82.04 82.14 81.60 80.94 81.87 82.22
3/24/2016 23:00 to 22:10 81.08 81.66 81.73 81.27 82.04 81.56
3/24/2016 22:00 to 21:10 82.52 83.64 82.49 81.52 83.41 83.82
3/24/2016 21:00 to 20:10 83.18 83.03 84.30 84.92 84.32 82.83
3/24/2016 20:00 to 19:10 83.18 81.00 84.65 87.54 87.60 86.05
3/24/2016 19:00 to 18:10 84.14 84.34 85.34 86.00 85.55 85.67
3/24/2016 18:00 to 17:10 85.42 86.02 87.06 87.19 87.08 87.33
3/24/2016 17:00 to 16:10 87.08 86.50 86.73 86.40 86.09 86.13
3/24/2016 16:00 to 15:10 86.50 86.40 86.05 85.84 87.19 86.96
3/24/2016 15:00 to 14:10 86.90 87.23 87.46 87.15 86.92 87.48
3/24/2016 14:00 to 13:10 88.02 88.23 87.62 87.42 87.27 87.87
3/24/2016 13:00 to 12:10 87.98 88.87 89.04 88.87 88.47 89.14
3/24/2016 12:00 to 11:10 88.66 87.46 88.00 88.89 87.77 87.89
3/24/2016 11:00 to 10:10 88.21 88.16 88.83 88.83 89.14 88.68
3/24/2016 10:00 to 9:10 89.33 89.29 88.16 87.52 89.18 89.29
3/24/2016 09:00 to 8:10 89.12 89.12 89.14 89.26 89.49 88.68
3/24/2016 08:00 to 7:10 88.60 87.83 87.66 87.87 87.64 87.62
3/24/2016 07:00 to 6:10 87.60 87.17 88.02 88.43 88.27 87.67
3/24/2016 06:00 to 5:10 88.47 89.04 88.37 88.39 88.50 88.00
3/24/2016 05:00 to 4:10 87.94 87.69 86.75 88.66 87.94 89.02
3/24/2016 04:00 to 3:10 87.69 88.89 89.43 89.68 88.81 88.39
3/24/2016 03:00 to 2:10 89.10 88.99 88.77 88.00 86.83 86.48
3/24/2016 02:00 to 1:10 86.48 87.96 86.34 86.61 87.15 87.33
3/24/2016 01:00 to 0:10 87.54 85.94 87.25 85.94 86.15 86.27